Location: Brabourne
(51.1333°N, 1.0000°E)
Time: 20:33:13
(UTC+00:00)

IRS-1D - Pass Details

Date: 23 October 2021
Orbit: 739 x 817 km, 98.6° (Epoch: 04 December)

Event Time Altitude Azimuth Distance (km) Brightness Sun altitude
Rises 04:24:39 0° 5° (N) 3,284 6.9 -20.8°
Reaches altitude 10° 04:27:46 10° 345° (NNW) 2,335 5.9 -20.3°
Enters shadow 04:29:39 15° 325° (NW) 1,978 5.4 -20.0°
